Hourly Data Report for October 17, 2013

All times are specified in Local Standard Time (LST). Add 1 hour to adjust for Daylight Saving Time where and when it is observed.

FORT LIARD
NORTHWEST TERRITORIES

60°14'00.000" N
123°28'00.000" W
213.40 m
2201579
71497
WJL

Download Data

Hourly Data (October 2013)
Hourly Data Report for October 17, 2013
Temp Definition
°C
Dew Point Temp Definition
°C
Rel Hum Definition
%
Wind Dir Definition
10's deg

Wind Spd Definition
km/h
Visibility Definition
km
Stn Press Definition
kPa
Hmdx Definition


Wind Chill Definition


Weather Definition


TIME
00:00 2.5 -1.3 76 21 15   99.66     LegendNANA
01:00 2.3 -1.4 77 21 13   99.67     LegendNANA
02:00 2.0 -1.3 79 21 13   99.67     LegendNANA
03:00 -0.6 -2.2 89   0   99.74     LegendNANA
04:00 -1.3 -2.6 91   0   99.75     LegendNANA
05:00 -2.7 -3.9 91   0   99.76     LegendNANA
06:00 -1.4 -2.6 92 22 7   99.77   -4 LegendNANA
07:00 -1.3 -2.7 90 20 11   99.74   -5 LegendNANA
08:00 -1.2 -2.5 91 20 15   99.71   -6 LegendNANA
09:00 0.6 -1.7 85 21 15   99.65     LegendNANA
10:00 1.9 -1.3 79 21 13   99.65     LegendNANA
11:00 4.5 -0.7 69 20 9   99.58     LegendNANA
12:00 7.7 0.0 58 22 11   99.49     LegendNANA
13:00 11.4 0.7 48 23 6   99.41     LegendNANA
14:00 14.0 0.8 41 20 7   99.33     LegendNANA
15:00 15.7 0.4 35 21 6   99.24     LegendNANA
16:00 16.5 0.5 34 19 2   99.15     LegendNANA
17:00 11.4 1.5 51 21 6   99.05     LegendNANA
18:00 7.4 1.7 67 23 4   99.04     LegendNANA
19:00 4.7 1.1 77 18 2   99.01     LegendNANA
20:00 4.1 0.8 79 23 2   99.00     LegendNANA
21:00 3.3 0.7 83 24 4   98.97     LegendNANA
22:00 1.6 -0.8 84   0   98.91     LegendNANA
23:00 1.6 -0.3 87 25 4   98.89     LegendNANA

Notes on Data Quality.

Legend

  • E = Estimated
  • M = Missing
  • NA = Not Available
  • ‡ = Partner data that is not subject to review by the National Climate Archives
Date modified: